Flag for U.S.A. Weather past 2 weeks in Idaho Falls, Idaho, U.S.A.

Now
32 °F

Fog.


Feels Like: 32 °F
Forecast: 24 / 35 °F
Wind: No wind

Location: Fanning Field

Current Time: Dec 17, 2014 at 4:56:07 PM

Latest Report: Dec 17, 2014 at 3:53 PM


Visibility: 10 mi

Pressure: 30.06 "Hg

Humidity: 88%

Dew point: 29 °F

Location of Idaho FallsLocation

Historic Weather in Idaho Falls — Graph

°F

Idaho Falls temperature yesterday

Maximum temperature yesterday: 37 °F (at 3:53 PM)
Minimum temperature yesterday: 25 °F (at 1:53 AM)
Average temperature yesterday: 31 °F

Past Weeks' High & Low Weather Summary

 TemperatureHumidityPressure
High58 °F (Dec 12, 12:53 PM)100% (Dec 7, 8:53 AM)30.45 "Hg (Dec 7, 8:53 AM)
Low19 °F (Dec 15, 7:53 PM)33% (Dec 11, 2:53 PM)29.74 "Hg (Dec 13, 1:53 AM)
Average35 °F84%30.14 "Hg
* Reported Dec 2 2:53 PM — Dec 17 2:53 PM, Idaho Falls, Weather by CustomWeather, © 2014

Note: Actual official high and low records may vary slightly from our data, if they occured in-between our weather recording intervals... More about our weather records

Advertising

Idaho Falls weather history for previous 24 hours

 ConditionsComfort  
Time TempWeatherWind HumidityBarometerVisibility
2:53 PM
Dec 17
32 °FFog.3 mph88%30.05 "Hg10 mi
1:53 PM32 °FFog.3 mph88%30.04 "Hg1 mi
12:53 PM31 °FIce fog.No wind89%30.06 "Hg0 mi
11:53 AM30 °FIce fog.6 mph89%30.08 "Hg0 mi
10:53 AM28 °FIce fog.6 mph89%30.10 "Hg0 mi
9:53 AM30 °FIce fog.No wind92%30.09 "Hg0 mi
8:53 AM29 °FIce fog.No wind93%30.09 "Hg0 mi
7:53 AM25 °FIce fog.No wind96%30.09 "Hg0 mi
6:53 AM27 °FIce fog.No wind96%30.07 "Hg0 mi
6:03 AM28 °FIce fog.No wind96%30.00 "Hg0 mi
4:53 AM29 °FIce fog.No wind96%30.06 "Hg0 mi
3:53 AM30 °FIce fog.No wind96%30.05 "Hg0 mi
2:53 AM30 °FIce fog.No wind96%30.06 "Hg1 mi
2:02 AM32 °FIce fog.No wind96%30.00 "Hg2 mi
1:53 AM32 °FIce fog.No wind96%30.05 "Hg2 mi
12:53 AM32 °FIce fog.3 mph92%30.06 "Hg3 mi
11:53 PM
Dec 16
32 °FIce fog.6 mph96%30.07 "Hg4 mi
10:53 PM32 °FIce fog.7 mph96%30.07 "Hg5 mi
10:01 PM32 °FLight snow. Ice fog.6 mph96%30.00 "Hg2 mi
8:53 PM33 °FLight snow. Fog.5 mph96%30.07 "Hg1 mi
7:53 PM33 °FLight snow. Fog.3 mph92%30.07 "Hg2 mi
6:53 PM32 °FLight snow. Ice fog.No wind92%30.06 "Hg2 mi
5:53 PM32 °FLight snow. Ice fog.No wind92%30.06 "Hg4 mi
4:53 PM35 °FLight snow. More clouds than sun.7 mph82%30.05 "Hg3 mi
Weather by CustomWeather, © 2014

See weather overviewHow to use our weather pages